Epoch 2016 Apr. 2.0 TT = JDT 2457480.5
T 2016 Mar. 18.66167 TT Williams
q 2.2873275 (2000.0) P Q
n 0.21562833 Peri. 329.02838 +0.23800231 -0.96829023
a 2.7542213 Node 107.11117 +0.90659538 +0.19341746
e 0.1695193 Incl. 4.55817 +0.34848201 +0.15812563
P 4.57
From 46 observations 2015 Nov. 12-2016 Mar. 7, mean residual 0".4.